DW1155 Weather Reports


time (UTC)temp
C
wind
direction
speed
KPH
gust
KPH
rain 1hr
cm
rain 24hr
cm
rain mn
cm
humidity
%
barometer
mb
20260506124520 11 353 6.4 8.0 0.00 0.03 0.00 91 1019.7
20260506123517 11 360 6.4 9.7 0.00 0.03 0.00 91 1019.7
20260506122545 11 360 6.4 9.7 0.00 0.03 0.00 91 1019.6
20260506121522 11 356 6.4 9.7 0.00 0.03 0.00 91 1019.6
20260506120520 11 354 6.4 9.7 0.00 0.03 0.00 91 1019.6
20260506115522 11 352 6.4 9.7 0.00 0.03 0.00 91 1019.5
20260506114517 11 355 6.4 9.7 0.00 0.03 0.00 91 1019.5
20260506113544 11 350 6.4 9.7 0.00 0.03 0.00 91 1019.5
20260506112522 11 349 6.4 9.7 0.00 0.03 0.00 91 1019.4
20260506111519 11 352 6.4 9.7 0.00 0.03 0.00 91 1019.4
20260506110516 11 360 6.4 9.7 0.00 0.03 0.00 91 1019.4
20260506105520 11 11 6.4 12.9 0.00 0.03 0.00 91 1019.4
20260506104517 11 5 8.0 14.5 0.00 0.03 0.00 91 1019.3
20260506103524 11 355 9.7 16.1 0.00 0.03 0.00 91 1019.3
20260506102522 10 1 6.4 9.7 0.00 0.03 0.00 91 1019.3
20260506101525 10 9 4.8 12.9 0.00 0.03 0.00 90 1019.2
20260506100522 10 360 8.0 12.9 0.00 0.03 0.00 90 1019.1
20260506095602 11 1 8.0 16.1 0.00 0.03 0.00 90 1019.1
20260506094520 11 357 11.3 16.1 0.00 0.03 0.00 90 1019.0
20260506093517 11 346 11.3 19.3 0.00 0.03 0.00 90 1018.9
20260506092524 11 331 12.9 17.7 0.00 0.03 0.00 90 1018.7
20260506091521 11 332 9.7 14.5 0.00 0.03 0.00 90 1018.7
20260506090518 11 329 8.0 12.9 0.00 0.05 0.00 90 1018.7
20260506085524 11 324 8.0 12.9 0.00 0.05 0.00 90 1018.8
20260506084537 11 336 6.4 9.7 0.00 0.05 0.00 90 1018.9
20260506083525 11 342 6.4 8.0 0.00 0.05 0.00 90 1018.9
20260506082520 11 346 6.4 8.0 0.00 0.05 0.00 90 1019.1
20260506081517 11 349 6.4 9.7 0.00 0.05 0.00 89 1019.2
20260506080524 11 358 6.4 9.7 0.00 0.08 0.00 89 1019.5
20260506073519 12 340 8.0 12.9 0.00 0.10 0.00 88 1019.1
20260506072516 12 342 6.4 14.5 0.00 0.10 0.00 88 1018.9
20260506071523 12 336 8.0 14.5 0.00 0.10 0.00 88 1018.8
20260506070520 12 341 6.4 9.7 0.00 0.10 0.00 87 1018.7
20260506061519 12 332 4.8 8.0 0.00 0.10 0.10 88 1018.2
20260506060516 12 321 4.8 9.7 0.00 0.10 0.10 87 1018.1
20260506050523 12 5 6.4 8.0 0.00 0.10 0.10 88 1017.5
20260506044522 12 13 4.8 8.0 0.00 0.10 0.10 88 1017.4
20260506043520 12 15 6.4 6.4 0.00 0.10 0.10 87 1017.0
20260506042525 13 15 4.8 8.0 0.00 0.10 0.10 87 1017.0
20260506041522 13 18 6.4 8.0 0.00 0.10 0.10 87 1017.0
20260506040539 13 16 4.8 6.4 0.00 0.10 0.10 86 1016.9
20260506035541 13 6 4.8 8.0 0.00 0.10 0.10 85 1016.8
20260506034536 14 349 4.8 8.0 0.00 0.10 0.10 84 1016.7
20260506033644 14 328 4.8 9.7 0.00 0.10 0.10 84 1016.7
20260506032520 15 338 6.4 8.0 0.00 0.10 0.10 83 1016.5
20260506031518 15 312 4.8 9.7 0.00 0.10 0.10 82 1016.3
20260506030525 15 304 6.4 11.3 0.00 0.10 0.10 82 1016.4
20260506025537 15 310 6.4 11.3 0.00 0.10 0.10 81 1016.3
20260506024524 15 301 6.4 11.3 0.00 0.10 0.10 81 1016.2
20260506023521 16 297 6.4 12.9 0.00 0.10 0.10 80 1016.3
20260506022517 16 295 6.4 12.9 0.00 0.10 0.10 79 1016.2
20260506021524 16 289 8.0 14.5 0.00 0.10 0.10 77 1016.1
20260506020521 17 303 6.4 14.5 0.00 0.10 0.10 75 1016.1
20260506015543 17 311 8.0 14.5 0.00 0.10 0.10 73 1015.9
20260506014520 17 318 9.7 14.5 0.00 0.10 0.10 72 1015.9
20260506013518 18 280 8.0 14.5 0.00 0.10 0.10 72 1015.9
20260506012525 18 314 6.4 16.1 0.00 0.10 0.10 69 1015.9
20260506011520 18 273 8.0 16.1 0.00 0.10 0.10 70 1016.0
20260506010517 18 299 9.7 16.1 0.00 0.10 0.10 68 1016.0
20260506005518 18 262 9.7 16.1 0.00 0.10 0.10 67 1016.0
20260506004525 18 300 11.3 16.1 0.00 0.10 0.10 68 1016.0
20260506003522 18 281 9.7 14.5 0.00 0.10 0.10 68 1016.0
20260506002539 17 270 9.7 17.7 0.00 0.10 0.10 70 1016.0
20260506001557 18 267 9.7 17.7 0.00 0.10 0.10 68 1015.9
20260506000524 18 256 9.7 17.7 0.00 0.10 0.10 69 1015.8
20260505235515 18 289 6.4 16.1 0.00 0.10 0.10 68 1015.9
20260505234523 18 260 9.7 16.1 0.00 0.10 0.10 70 1015.9
20260505233520 18 291 9.7 19.3 0.00 0.10 0.10 70 1015.9
20260505232545 18 281 12.9 19.3 0.00 0.10 0.10 71 1015.9
20260505231522 18 268 11.3 19.3 0.00 0.10 0.10 71 1015.9
20260505230520 18 274 11.3 19.3 0.00 0.10 0.10 71 1015.9
20260505225522 18 271 11.3 20.9 0.00 0.10 0.10 71 1015.8
20260505224519 17 276 14.5 20.9 0.00 0.10 0.10 72 1015.9
20260505223524 17 273 12.9 20.9 0.00 0.10 0.10 73 1015.8
20260505222542 18 298 11.3 19.3 0.00 0.10 0.10 72 1015.8
20260505221519 17 267 12.9 19.3 0.00 0.10 0.10 74 1016.0
20260505220516 16 278 9.7 19.3 0.00 0.10 0.10 75 1016.0
20260505215518 16 306 9.7 17.7 0.00 0.10 0.10 76 1016.1
20260505214523 16 322 8.0 16.1 0.00 0.10 0.10 76 1016.2
20260505213520 16 334 6.4 14.5 0.00 0.10 0.10 74 1016.2
20260505212518 16 319 6.4 12.9 0.00 0.10 0.10 74 1016.2
20260505211525 16 289 8.0 14.5 0.00 0.10 0.10 75 1016.3
20260505210542 16 306 6.4 16.1 0.00 0.10 0.10 75 1016.3
20260505205524 16 329 8.0 17.7 0.00 0.10 0.10 74 1016.3
20260505204522 16 331 9.7 19.3 0.00 0.10 0.10 75 1016.2
20260505203517 15 308 11.3 19.3 0.00 0.10 0.10 77 1016.2
20260505202524 15 292 12.9 19.3 0.00 0.10 0.10 78 1016.4
20260505201521 15 324 8.0 16.1 0.00 0.10 0.10 77 1016.4
20260505200518 15 278 8.0 16.1 0.00 0.10 0.10 79 1016.5
20260505195520 15 293 9.7 16.1 0.00 0.10 0.10 79 1016.5
20260505194515 15 278 8.0 17.7 0.00 0.10 0.10 79 1016.5
20260505193522 15 286 11.3 17.7 0.00 0.10 0.10 80 1016.5
20260505192520 15 294 8.0 17.7 0.00 0.10 0.10 79 1016.4
20260505191517 15 284 11.3 17.7 0.00 0.10 0.10 80 1016.4
20260505190524 14 304 9.7 16.1 0.00 0.10 0.10 83 1016.5
20260505185544 14 286 11.3 16.1 0.00 0.10 0.10 82 1016.5
20260505184521 14 309 9.7 16.1 0.00 0.10 0.10 82 1016.5
20260505183519 14 291 8.0 16.1 0.00 0.10 0.10 82 1016.3
20260505182516 14 320 9.7 16.1 0.00 0.10 0.10 83 1016.1
20260505181523 14 313 11.3 16.1 0.00 0.10 0.10 84 1016.0
20260505180521 13 305 9.7 19.3 0.00 0.10 0.10 84 1016.0
20260505175523 13 295 11.3 16.1 0.00 0.10 0.10 85 1015.9
20260505174520 13 317 9.7 16.1 0.00 0.10 0.10 86 1015.9
20260505173517 13 322 6.4 14.5 0.00 0.10 0.10 87 1016.1
20260505172522 13 333 8.0 14.5 0.00 0.10 0.10 88 1016.0
20260505171520 13 311 8.0 12.9 0.00 0.10 0.10 88 1015.9
20260505170517 12 326 6.4 12.9 0.00 0.10 0.10 88 1015.9
20260505165523 12 345 6.4 9.7 0.00 0.10 0.10 88 1016.0
20260505164516 12 341 4.8 9.7 0.00 0.10 0.10 88 1016.0
20260505163543 12 344 4.8 9.7 0.00 0.10 0.10 88 1016.0
20260505162540 12 349 4.8 9.7 0.00 0.10 0.10 89 1016.0
20260505161536 12 344 4.8 12.9 0.00 0.10 0.10 89 1015.9
20260505160523 12 354 6.4 12.9 0.00 0.10 0.10 90 1015.8
20260505152517 11 339 8.0 14.5 0.00 0.10 0.10 91 1015.8
20260505151524 11 344 8.0 14.5 0.00 0.10 0.10 92 1015.7
20260505150521 11 321 8.0 14.5 0.00 0.10 0.10 92 1015.5
20260505140515 11 5 1.6 4.8 0.03 0.10 0.10 92 1015.0